Regional Weather Roundup
Issued by NWS

Home | Current Version | Previous Version | Text Only | Print | Product List | Glossary On
Versions: 1 2 3 4 5 6 7 8 9 10 11 12 13 14 15 16 17 18 19 20 21 22 23 24 25 26 27 28 29 30 31 32 33 34 35 36 37 38 39 40 41 42 43 44 45 46 47 48 49 50
000
ASUS44 KFWD 221515
RWRTX
NORTH TEXAS HOURLY WEATHER ROUNDUP
NATIONAL WEATHER SERVICE FORT WORTH TX
1000 AM CDT FRI SEP 22 2017

NOTE: "FAIR" INDICATES FEW OR NO CLOUDS BELOW 12,000 FEET WITH NO
SIGNIFICANT WEATHER AND/OR OBSTRUCTIONS TO VISIBILITY.

TXZ118-119-221600-
DALLAS/FORT WORTH METROPLEX

CITY           SKY/WX    TMP DP  RH WIND       PRES   REMARKS
DFW AIRPORT    PTSUNNY   82  73  74 SE15      29.97R
DALLAS LOVE    PTSUNNY   80  72  76 S10       29.99R
FTW MEACHAM    MOSUNNY   83  73  72 S13       29.97S
DAL-EXECUTIVE  CLOUDY    79  73  82 SE5       29.99R
FTW-ALLIANCE   MOSUNNY   82  72  71 S8        29.98R
FTW-NAS-JRB    MOSUNNY   82  70  66 S14       29.98S
FTW-SPINKS     PTSUNNY   81  70  69 S13G18    30.00R
ARLINGTON      CLOUDY    80  73  79 SE14      29.99R
GRAND PRAIRIE  CLOUDY    79  70  73 SE12      30.00R
ADDISON        CLOUDY    79  72  78 SE12      30.00R
MESQUITE       CLOUDY    77  54  44 S10       30.01R
LANCASTER      CLOUDY    77  71  81 S8        30.01R
$$

TXZ091>094-102>105-117-120-121-131>134-221600-
NORTH CENTRAL TEXAS

CITY           SKY/WX    TMP DP  RH WIND       PRES   REMARKS
SHRMAN/DENISON CLOUDY    78  71  80 S10       30.01R
GAINESVILLE    CLOUDY    78  70  77 S13       30.00S
BOWIE          MOSUNNY   79  71  76 S9        29.98R
BRIDGEPORT     MOSUNNY   80  70  72 S12       29.99R
DECATUR        MOSUNNY   80  70  71 S15G21    29.97S
DENTON         CLOUDY    79  72  79 S13       29.98S
MCKINNEY       CLOUDY    77  74  90 S9        30.00R
BONHAM         PTSUNNY   78  70  76 S13       30.01S
GREENVILLE     MOSUNNY   82  72  69 S12       30.02R
ROCKWALL       CLOUDY    77  72  86 S15G24    30.02R
TERRELL        MOSUNNY   81  70  69 S13       30.01R
WAXAHACHIE     CLOUDY    78  73  84 S12       30.01R
CLEBURNE       PTSUNNY   81  73  78 S14       30.00S
GRANBURY       CLOUDY    81  70  70 SE12G18   29.99R
$$

TXZ083>090-098>101-113>116-127>130-139>142-154-155-221600-
WESTERN NORTH TEXAS

CITY           SKY/WX    TMP DP  RH WIND       PRES   REMARKS
WICHITA FALLS  MOSUNNY   79  69  71 S16       29.94R
WF-KICKAPOO    SUNNY     79  70  74 S14G22    29.97R
VERNON         MOSUNNY   80  66  60 S16       29.95R
ABILENE        MOSUNNY   78  69  73 S16G26    29.96S
ABILENE-DYESS  MOSUNNY   80  69  69 S20G28    29.95R
GRAHAM         MOSUNNY   80  69  69 SE9       29.96R
BRECKENRIDGE   MOSUNNY   82  68  61 S17       29.96R
CISCO          MOSUNNY   79  70  73 S15G23    29.99R
EASTLAND       PTSUNNY   78  69  75 S15G21    29.97S
RANGER         PTSUNNY   77  70  78 S13       29.98S
MINERAL WELLS  CLOUDY    78  70  76 S9        29.97R
STEPHENVILLE   CLOUDY    78  70  76 S13       30.01S
COMANCHE       CLOUDY    80  70  72 S14       29.99R
BROWNWOOD      PTSUNNY   81  70  69 S9G16     29.98R
COLEMAN        PTSUNNY   78  68  71 S15       29.98R
$$

TXZ143>147-156>162-174-175-221600-
CENTRAL TEXAS

CITY           SKY/WX    TMP DP  RH WIND       PRES   REMARKS
WACO           PTSUNNY   80  73  79 S9        29.99R
WACO-TSTC      PTSUNNY   79  73  83 S7        29.99S FOG
WACO-MCGREGOR    N/A     80  73  79 S12       29.99
HILLSBORO      CLOUDY    78  73  84 S12       30.00R
CORSICANA      PTSUNNY   80  73  79 S9        30.02R
MEXIA          CLOUDY    77  73  88 S8        30.00R
CAMERON        CLOUDY    78  74  88 SE3       29.99S
TEMPLE         CLOUDY    77  73  87 SE10      30.00R
KILLEEN        PTSUNNY   81  72  74 SE14      29.98R
FORT HOOD      CLOUDY    77  72  85 SE9       29.96S
GATESVILLE     MOSUNNY   81  72  74 SE9       30.00S
HAMILTON       CLOUDY    80  71  75 S13       30.00R
LAMPASAS       MOSUNNY   80  73  80 S12       29.98S
$$

TXZ095>097-106>112-122>126-135>138-148>153-164>167-221600-
EAST TEXAS

CITY           SKY/WX    TMP DP  RH WIND       PRES   REMARKS
PARIS          CLOUDY    75  72  88 S9        30.04R
SULPHUR SPRNGS CLOUDY    79  73  83 S8        30.04S
MOUNT PLEASANT CLOUDY    75  73  92 SE5       30.05S
GILMER         CLOUDY    73  71  96 SW5       30.04R
MINEOLA        PTSUNNY   77  73  88 S7        30.02S
TYLER          MOSUNNY   79  72  79 VRB3      30.02S
LONGVIEW       PTSUNNY   75  74  96 CALM      30.03R
MARSHALL       SUNNY     76  72  85 CALM      30.06R
ATHENS         MOSUNNY   77  72  83 S6        30.01R
PALESTINE      CLOUDY    76  76 100 SE6       30.03R
JACKSONVILLE   CLOUDY    74  74 100 SE3       30.06R FOG
HENDERSON      CLOUDY    73  73 100 CALM      30.05R FOG
CENTER         CLOUDY    78  76  95 CALM      30.05R FOG
NACOGDOCHES    CLOUDY    77  73  88 SE5       30.04R
LUFKIN         CLOUDY    75  75 100 CALM      30.03R
$$

SUPPLEMENTAL OBSERVATIONS (NWS FORT WORTH AREA)

CITY           SKY/WX    TMP DP  RH WIND       PRES   REMARKS
DENISON DAM      N/A     79  72  78 S6          N/A
CADDO GRASSLND   N/A     79  72  78 S9          N/A
PAT MAYSE LAKE   N/A     75  73  94 SE10        N/A
GREENVILLE       N/A     79  72  78 S6          N/A
CEDAR HILL       N/A     81  72  74 S6          N/A
LBJ GRASSLAND    N/A     81  70  69 S12         N/A
POSSUM KINGDOM   N/A     81  70  69 S10         N/A
GRANBURY         N/A     81  70  69 S15         N/A
COMANCHE         N/A     82  68  61 S16         N/A
MCGREGOR         N/A     79  72  78 S12         N/A
TEMPLE           N/A     79  73  83 S6          N/A
LAKE LIMESTONE   N/A     81  73  78 S6          N/A
ATHENS           N/A     79  73  83 S9          N/A
$$

SUPPLEMENTAL OBSERVATIONS (NWS NORMAN AREA)

CITY           SKY/WX    TMP DP  RH WIND       PRES   REMARKS
ODELL            N/A     80  70  73 S12       29.96R
CROWELL          N/A     82  69  66 S16       29.95R
KNOX CITY        N/A     82  67  60 S17       29.95R
SEYMOUR          N/A     80  68  67 S15G21    29.95S
$$

SUPPLEMENTAL OBSERVATIONS (NWS SAN ANGELO AREA)

CITY           SKY/WX    TMP DP  RH WIND       PRES   REMARKS
WEINERT          N/A     82  69  65 S15       29.95S
HASKELL          N/A     80  66  63 S17G23    29.95S
THROCKMORTON     N/A     81  70  68 S14       29.97S
STAMFORD         N/A     81  70  68 S18       29.96R
CLYDE            N/A     77  69  76 S12       30.00R
HAMBY            N/A     81  68  65 S18         N/A
IVIE RESERVOIR   N/A     82  68  61 S16         N/A
COLORADO BEND    N/A     81  70  69 S9G18       N/A
$$

SUPPLEMENTAL OBSERVATIONS (NWS SHREVEPORT AREA)

CITY           SKY/WX    TMP DP  RH WIND       PRES   REMARKS
CLARKSVILLE      N/A     81  72  74 S6          N/A
TEXARKANA        N/A     84  75  74 SE2         N/A  HX  92
LINDEN           N/A     84  73  70 SE2         N/A  HX  91
CADDO LAKE       N/A     84  73  70 E2          N/A  HX  91
GILMER           N/A     75  72  88 S2          N/A
HENDERSON        N/A     73  68  83 W1          N/A
LUFKIN           N/A     77  75  94 MISG        N/A
N SABINE NF      N/A     79  75  89 MISG        N/A
S SABINE NF      N/A     82  79  89 E3          N/A  HX  93
$$

SUPPLEMENTAL OBSERVATIONS ARE A COLLECTION OF AUTOMATED INSTRUMENTS
THAT ARE MAINTAINED BY A VARIETY OF FEDERAL AND STATE AGENCIES.
CERTAIN ELEMENTS...SUCH AS HUMIDITY VALUES AND SUSTAINED WIND
SPEEDS...MAY BE APPROXIMATED.





USA.gov is the U.S. government's official web portal to all federal, state and local government web resources and services.